Location: Ostrava
(49.8330°N, 18.2830°E)
Time: 05:21:33
(UTC+02:00)

ISS - Pass Details

Date: 20 May 2021
Orbit: 417 x 422 km, 51.6° (Epoch: 13 June)

Event Time Altitude Azimuth Distance (km) Brightness Sun altitude
Rises 01:20:01 0° 288° (WNW) 2,371 0.2 -19.7°
Reaches altitude 10° 01:22:10 10° 282° (WNW) 1,506 -0.9 -19.7°
Enters shadow 01:23:07 17° 276° (W) 1,138 -1.6 -19.6°
